シャルネツキー彗星

C/2024 V2 ( Sarneczky )

English version
Home page
Updated on November 26, 2024

---------------------------------------------------------------------

・ プロフィール

発見日 2024年11月10日
発見光度 19.8等
発見者 Krisztian Sarneczky (Piszkesteto Observatory in Hungary)

・ 軌道要素

Epoch 2024 Oct. 17.0 TT = JDT 2460600.5                                         
T 2024 Nov. 4.73115 TT                                  Rudenko                 
q   1.2508409            (2000.0)            P               Q                  
z  -0.0234545      Peri.   14.69325     -0.18572791     +0.15682909             
 +/-0.0219747      Node   102.67573     +0.77101028     -0.58871634             
e   1.0293379      Incl.   96.15419     +0.60913734     +0.79298027             
From 48 observations 2024 Nov. 10-17, mean residual 0".9.                       

・ 光度変化

        m1 = 18.0 + 5 logΔ + 10.0 log r

---------------------------------------------------------------------

軌道要素はM.P.E.C. 2024-W09に掲載されたものです。
光度グラフはComet for Windowsで作成したものです。

---------------------------------------------------------------------

Copyright(C) Seiichi Yoshida (comet@aerith.net). All rights reserved.